This is the latest recevied weather packets stored in our database for station/object KB0RPJ. If no packets are shown the sender has not sent any weather packets the latest 10 day(s).
| Time | Temp. | Humidity | Pressure | Rain* | Wind** | Luminosity | Snow |
|---|---|---|---|---|---|---|---|
| 1778204406 | 16.67° C | 53% | 1008.9 hPa | 0 mm | - | 0 W/m² | - |
| 1778204105 | 17.22° C | 52% | 1008.9 hPa | 0 mm | - | 0 W/m² | - |
| 1778203805 | 17.22° C | 52% | 1008.8 hPa | 0 mm | - | 0 W/m² | - |
| 1778203517 | 17.22° C | 51% | 1008.9 hPa | 0 mm | - | 0 W/m² | - |
| 1778203205 | 17.22° C | 51% | 1008.8 hPa | 0 mm | - | 0 W/m² | - |
| 1778202909 | 17.78° C | 50% | 1008.8 hPa | 0 mm | - | 4 W/m² | - |
| 1778202605 | 17.78° C | 50% | 1008.8 hPa | 0 mm | - | 6 W/m² | - |
| 1778202305 | 17.78° C | 49% | 1008.8 hPa | 0 mm | - | 9 W/m² | - |
| 1778202004 | 17.78° C | 49% | 1008.8 hPa | 0 mm | - | 12 W/m² | - |
| 1778201705 | 18.33° C | 49% | 1008.8 hPa | 0 mm | - | 15 W/m² | - |
| 1778201408 | 18.33° C | 48% | 1008.8 hPa | 0 mm | - | 20 W/m² | - |
| 1778201105 | 18.33° C | 49% | 1008.8 hPa | 0 mm | - | 24 W/m² | - |
| 1778200805 | 18.33° C | 48% | 1008.8 hPa | 0 mm | - | 29 W/m² | - |
| 1778200505 | 18.33° C | 48% | 1008.8 hPa | 0 mm | - | 36 W/m² | - |
| 1778200205 | 18.33° C | 48% | 1008.8 hPa | 0 mm | - | 41 W/m² | - |
| 1778199905 | 18.89° C | 47% | 1008.8 hPa | 0 mm | - | 38 W/m² | - |
| 1778199605 | 18.89° C | 47% | 1008.8 hPa | 0 mm | - | 38 W/m² | - |
| 1778199304 | 18.89° C | 47% | 1008.8 hPa | 0 mm | - | 42 W/m² | - |
| 1778199005 | 18.89° C | 46% | 1008.9 hPa | 0 mm | - | 46 W/m² | - |
| 1778198705 | 19.44° C | 45% | 1009 hPa | 0 mm | - | 52 W/m² | - |
| 1778198405 | 19.44° C | 46% | 1009 hPa | 0 mm | - | 75 W/m² | - |
| 1778198116 | 19.44° C | 46% | 1009.1 hPa | 0 mm | - | 163 W/m² | - |
| 1778197806 | 20° C | 45% | 1009.1 hPa | 0 mm | - | 183 W/m² | - |
| 1778197508 | 19.44° C | 45% | 1009.2 hPa | 0 mm | - | 199 W/m² | - |
| 1778197208 | 19.44° C | 46% | 1009.2 hPa | 0 mm | - | 214 W/m² | - |
* Rain latest hour (hover to see other rain measurements)
** Current wind speed in m/s (hover to see current wind gust speed)